Year,Month,Day,Hour,Minute,Value (Times are PST for temperature in C)
2002,07,23,00,00,22.60
2002,07,23,00,01,22.60
2002,07,23,00,02,22.60
2002,07,23,00,03,22.60
2002,07,23,00,04,22.60
2002,07,23,00,05,22.60
2002,07,23,00,06,22.60
2002,07,23,00,07,22.60
2002,07,23,00,08,22.60
2002,07,23,00,09,22.50
2002,07,23,00,10,22.50
2002,07,23,00,11,22.50
2002,07,23,00,12,22.40
2002,07,23,00,13,22.40
2002,07,23,00,14,22.40
2002,07,23,00,15,22.40
2002,07,23,00,16,22.40
2002,07,23,00,17,22.30
2002,07,23,00,18,22.30
2002,07,23,00,19,22.30
2002,07,23,00,20,22.30
2002,07,23,00,21,22.20
2002,07,23,00,22,22.20
2002,07,23,00,23,22.20
2002,07,23,00,24,22.10
2002,07,23,00,25,22.10
2002,07,23,00,26,22.10
2002,07,23,00,27,22.10
2002,07,23,00,28,22.10
2002,07,23,00,29,22.10
2002,07,23,00,30,22.00
2002,07,23,00,31,22.00
2002,07,23,00,32,22.00
2002,07,23,00,33,22.00
2002,07,23,00,34,22.00
2002,07,23,00,35,22.00
2002,07,23,00,36,22.00
2002,07,23,00,37,22.00
2002,07,23,00,38,22.00
2002,07,23,00,39,21.90
2002,07,23,00,40,21.90
2002,07,23,00,41,21.90
2002,07,23,00,42,21.90
2002,07,23,00,43,21.90
2002,07,23,00,44,21.80
2002,07,23,00,45,21.80
2002,07,23,00,46,21.80
2002,07,23,00,47,21.70
2002,07,23,00,48,21.70
2002,07,23,00,49,21.70
2002,07,23,00,50,21.70
2002,07,23,00,51,21.70
2002,07,23,00,52,21.70
2002,07,23,00,53,21.80
2002,07,23,00,54,21.80
2002,07,23,00,55,21.80
2002,07,23,00,56,21.90
2002,07,23,00,57,21.90
2002,07,23,00,58,21.90
2002,07,23,00,59,21.90
2002,07,23,01,00,21.90
2002,07,23,01,01,22.00
2002,07,23,01,02,22.00
2002,07,23,01,03,22.00
2002,07,23,01,04,22.10
2002,07,23,01,05,22.10
2002,07,23,01,06,22.10
2002,07,23,01,07,22.20
2002,07,23,01,08,22.30
2002,07,23,01,09,22.40
2002,07,23,01,10,22.40
2002,07,23,01,11,22.40
2002,07,23,01,12,22.40
2002,07,23,01,13,22.40
2002,07,23,01,14,22.30
2002,07,23,01,15,22.30
2002,07,23,01,16,22.20
2002,07,23,01,17,22.20
2002,07,23,01,18,22.10
2002,07,23,01,19,22.10
2002,07,23,01,20,22.00
2002,07,23,01,21,22.00
2002,07,23,01,22,22.00
2002,07,23,01,23,21.90
2002,07,23,01,24,21.90
2002,07,23,01,25,21.80
2002,07,23,01,26,21.80
2002,07,23,01,27,21.70
2002,07,23,01,28,21.60
2002,07,23,01,29,21.60
2002,07,23,01,30,21.60
2002,07,23,01,31,21.50
2002,07,23,01,32,21.40
2002,07,23,01,33,21.30
2002,07,23,01,34,21.30
2002,07,23,01,35,21.10
2002,07,23,01,36,21.00
2002,07,23,01,37,21.00
2002,07,23,01,38,20.90
2002,07,23,01,39,20.80
2002,07,23,01,40,20.70
2002,07,23,01,41,20.60
2002,07,23,01,42,20.50
2002,07,23,01,43,20.50
2002,07,23,01,44,20.50
2002,07,23,01,45,20.50
2002,07,23,01,46,20.40
2002,07,23,01,47,20.30
2002,07,23,01,48,20.20
2002,07,23,01,49,20.20
2002,07,23,01,50,20.20
2002,07,23,01,51,20.20
2002,07,23,01,52,20.20
2002,07,23,01,53,20.20
2002,07,23,01,54,20.20
2002,07,23,01,55,20.20
2002,07,23,01,56,20.20
2002,07,23,01,57,20.20
2002,07,23,01,58,20.20
2002,07,23,01,59,20.20
2002,07,23,02,00,20.10
2002,07,23,02,01,20.10
2002,07,23,02,02,20.10
2002,07,23,02,03,20.00
2002,07,23,02,04,19.90
2002,07,23,02,05,19.90
2002,07,23,02,06,19.90
2002,07,23,02,07,19.90
2002,07,23,02,08,19.90
2002,07,23,02,09,19.90
2002,07,23,02,10,19.90
2002,07,23,02,11,19.90
2002,07,23,02,12,19.90
2002,07,23,02,13,19.90
2002,07,23,02,14,19.90
2002,07,23,02,15,19.90
2002,07,23,02,16,19.90
2002,07,23,02,17,19.90
2002,07,23,02,18,19.90
2002,07,23,02,19,19.90
2002,07,23,02,20,19.90
2002,07,23,02,21,19.90
2002,07,23,02,22,19.90
2002,07,23,02,23,19.80
2002,07,23,02,24,19.80
2002,07,23,02,25,19.80
2002,07,23,02,26,19.80
2002,07,23,02,27,19.80
2002,07,23,02,28,19.80
2002,07,23,02,29,19.90
2002,07,23,02,30,19.90
2002,07,23,02,31,19.90
2002,07,23,02,32,19.90
2002,07,23,02,33,19.90
2002,07,23,02,34,19.90
2002,07,23,02,35,19.90
2002,07,23,02,36,19.90
2002,07,23,02,37,19.80
2002,07,23,02,38,19.80
2002,07,23,02,39,19.70
2002,07,23,02,40,19.70
2002,07,23,02,41,19.60
2002,07,23,02,42,19.50
2002,07,23,02,43,19.40
2002,07,23,02,44,19.40
2002,07,23,02,45,19.30
2002,07,23,02,46,19.20
2002,07,23,02,47,19.10
2002,07,23,02,48,19.00
2002,07,23,02,49,18.90
2002,07,23,02,50,18.90
2002,07,23,02,51,18.80
2002,07,23,02,52,18.70
2002,07,23,02,53,18.70
2002,07,23,02,54,18.60
2002,07,23,02,55,18.50
2002,07,23,02,56,18.50
2002,07,23,02,57,18.40
2002,07,23,02,58,18.30
2002,07,23,02,59,18.30
2002,07,23,03,00,18.20
2002,07,23,03,01,18.20
2002,07,23,03,02,18.10
2002,07,23,03,03,18.10
2002,07,23,03,04,18.00
2002,07,23,03,05,17.90
2002,07,23,03,06,17.80
2002,07,23,03,07,17.70
2002,07,23,03,08,17.60
2002,07,23,03,09,17.50
2002,07,23,03,10,17.40
2002,07,23,03,11,17.30
2002,07,23,03,12,17.30
2002,07,23,03,13,17.30
2002,07,23,03,14,17.30
2002,07,23,03,15,17.30
2002,07,23,03,16,17.20
2002,07,23,03,17,17.20
2002,07,23,03,18,17.20
2002,07,23,03,19,17.20
2002,07,23,03,20,17.20
2002,07,23,03,21,17.30
2002,07,23,03,22,17.30
2002,07,23,03,23,17.30
2002,07,23,03,24,17.30
2002,07,23,03,25,17.30
2002,07,23,03,26,17.30
2002,07,23,03,27,17.30
2002,07,23,03,28,17.30
2002,07,23,03,29,17.30
2002,07,23,03,30,17.20
2002,07,23,03,31,17.20
2002,07,23,03,32,17.10
2002,07,23,03,33,17.10
2002,07,23,03,34,17.10
2002,07,23,03,35,17.10
2002,07,23,03,36,17.10
2002,07,23,03,37,17.10
2002,07,23,03,38,17.10
2002,07,23,03,39,17.10
2002,07,23,03,40,17.10
2002,07,23,03,41,17.10
2002,07,23,03,42,17.10
2002,07,23,03,43,17.20
2002,07,23,03,44,17.20
2002,07,23,03,45,17.20
2002,07,23,03,46,17.20
2002,07,23,03,47,17.20
2002,07,23,03,48,17.20
2002,07,23,03,49,17.20
2002,07,23,03,50,17.20
2002,07,23,03,51,17.20
2002,07,23,03,52,17.20
2002,07,23,03,53,17.20
2002,07,23,03,54,17.20
2002,07,23,03,55,17.20
2002,07,23,03,56,17.20
2002,07,23,03,57,17.20
2002,07,23,03,58,17.20
2002,07,23,03,59,17.20
2002,07,23,04,00,17.20
2002,07,23,04,01,17.30
2002,07,23,04,02,17.30
2002,07,23,04,03,17.30
2002,07,23,04,04,17.30
2002,07,23,04,05,17.30
2002,07,23,04,06,17.30
2002,07,23,04,07,17.30
2002,07,23,04,08,17.30
2002,07,23,04,09,17.30
2002,07,23,04,10,17.30
2002,07,23,04,11,17.30
2002,07,23,04,12,17.20
2002,07,23,04,13,17.20
2002,07,23,04,14,17.20
2002,07,23,04,15,17.20
2002,07,23,04,16,17.20
2002,07,23,04,17,17.20
2002,07,23,04,18,17.20
2002,07,23,04,19,17.20
2002,07,23,04,20,17.20
2002,07,23,04,21,17.20
2002,07,23,04,22,17.20
2002,07,23,04,23,17.10
2002,07,23,04,24,17.10
2002,07,23,04,25,17.00
2002,07,23,04,26,17.00
2002,07,23,04,27,16.90
2002,07,23,04,28,16.90
2002,07,23,04,29,16.80
2002,07,23,04,30,16.70
2002,07,23,04,31,16.70
2002,07,23,04,32,16.70
2002,07,23,04,33,16.70
2002,07,23,04,34,16.70
2002,07,23,04,35,16.70
2002,07,23,04,36,16.70
2002,07,23,04,37,16.70
2002,07,23,04,38,16.70
2002,07,23,04,39,16.70
2002,07,23,04,40,16.70
2002,07,23,04,41,16.70
2002,07,23,04,42,16.70
2002,07,23,04,43,16.70
2002,07,23,04,44,16.70
2002,07,23,04,45,16.70
2002,07,23,04,46,16.70
2002,07,23,04,47,16.70
2002,07,23,04,48,16.70
2002,07,23,04,49,16.70
2002,07,23,04,50,16.80
2002,07,23,04,51,16.80
2002,07,23,04,52,16.80
2002,07,23,04,53,16.80
2002,07,23,04,54,16.80
2002,07,23,04,55,16.70
2002,07,23,04,56,16.70
2002,07,23,04,57,16.70
2002,07,23,04,58,16.60
2002,07,23,04,59,16.60
2002,07,23,05,00,16.60
2002,07,23,05,01,16.60
2002,07,23,05,02,16.50
2002,07,23,05,03,16.40
2002,07,23,05,04,16.40
2002,07,23,05,05,16.40
2002,07,23,05,06,16.40
2002,07,23,05,07,16.40
2002,07,23,05,08,16.40
2002,07,23,05,09,16.40
2002,07,23,05,10,16.40
2002,07,23,05,11,16.40
2002,07,23,05,12,16.40
2002,07,23,05,13,16.40
2002,07,23,05,14,16.40
2002,07,23,05,15,16.50
2002,07,23,05,16,16.60
2002,07,23,05,17,16.60
2002,07,23,05,18,16.60
2002,07,23,05,19,16.60
2002,07,23,05,20,16.60
2002,07,23,05,21,16.70
2002,07,23,05,22,16.70
2002,07,23,05,23,16.70
2002,07,23,05,24,16.70
2002,07,23,05,25,16.70
2002,07,23,05,26,16.70
2002,07,23,05,27,16.70
2002,07,23,05,28,16.70
2002,07,23,05,29,16.70
2002,07,23,05,30,16.70
2002,07,23,05,31,16.70
2002,07,23,05,32,16.70
2002,07,23,05,33,16.70
2002,07,23,05,34,16.70
2002,07,23,05,35,16.70
2002,07,23,05,36,16.70
2002,07,23,05,37,16.70
2002,07,23,05,38,16.70
2002,07,23,05,39,16.80
2002,07,23,05,40,16.80
2002,07,23,05,41,16.70
2002,07,23,05,42,16.70
2002,07,23,05,43,16.70
2002,07,23,05,44,16.80
2002,07,23,05,45,16.80
2002,07,23,05,46,16.80
2002,07,23,05,47,16.80
2002,07,23,05,48,16.80
2002,07,23,05,49,16.80
2002,07,23,05,50,16.80
2002,07,23,05,51,16.80
2002,07,23,05,52,16.80
2002,07,23,05,53,16.80
2002,07,23,05,54,16.80
2002,07,23,05,55,16.80
2002,07,23,05,56,16.70
2002,07,23,05,57,16.70
2002,07,23,05,58,16.70
2002,07,23,05,59,16.70
2002,07,23,06,00,16.80
2002,07,23,06,01,16.80
2002,07,23,06,02,16.90
2002,07,23,06,03,16.90
2002,07,23,06,04,16.90
2002,07,23,06,05,16.90
2002,07,23,06,06,16.90
2002,07,23,06,07,16.90
2002,07,23,06,08,16.90
2002,07,23,06,09,16.90
2002,07,23,06,10,17.00
2002,07,23,06,11,17.00
2002,07,23,06,12,17.00
2002,07,23,06,13,17.10
2002,07,23,06,14,17.10
2002,07,23,06,15,17.10
2002,07,23,06,16,17.10
2002,07,23,06,17,17.10
2002,07,23,06,18,17.20
2002,07,23,06,19,17.20
2002,07,23,06,20,17.20
2002,07,23,06,21,17.20
2002,07,23,06,22,17.20
2002,07,23,06,23,17.20
2002,07,23,06,24,17.20
2002,07,23,06,25,17.20
2002,07,23,06,26,17.30
2002,07,23,06,27,17.30
2002,07,23,06,28,17.30
2002,07,23,06,29,17.30
2002,07,23,06,30,17.30
2002,07,23,06,31,17.40
2002,07,23,06,32,17.50
2002,07,23,06,33,17.50
2002,07,23,06,34,17.50
2002,07,23,06,35,17.60
2002,07,23,06,36,17.60
2002,07,23,06,37,17.60
2002,07,23,06,38,17.60
2002,07,23,06,39,17.70
2002,07,23,06,40,17.70
2002,07,23,06,41,17.70
2002,07,23,06,42,17.70
2002,07,23,06,43,17.70
2002,07,23,06,44,17.70
2002,07,23,06,45,17.80
2002,07,23,06,46,17.80
2002,07,23,06,47,17.80
2002,07,23,06,48,17.80
2002,07,23,06,49,17.90
2002,07,23,06,50,17.90
2002,07,23,06,51,17.90
2002,07,23,06,52,17.90
2002,07,23,06,53,18.00
2002,07,23,06,54,18.10
2002,07,23,06,55,18.10
2002,07,23,06,56,18.20
2002,07,23,06,57,18.20
2002,07,23,06,58,18.20
2002,07,23,06,59,18.40
2002,07,23,07,00,18.50
2002,07,23,07,01,18.60
2002,07,23,07,02,18.60
2002,07,23,07,03,18.60
2002,07,23,07,04,18.70
2002,07,23,07,05,18.80
2002,07,23,07,06,18.80
2002,07,23,07,07,18.90
2002,07,23,07,08,18.90
2002,07,23,07,09,19.00
2002,07,23,07,10,19.00
2002,07,23,07,11,19.10
2002,07,23,07,12,19.10
2002,07,23,07,13,19.20
2002,07,23,07,14,19.20
2002,07,23,07,15,19.30
2002,07,23,07,16,19.30
2002,07,23,07,17,19.40
2002,07,23,07,18,19.40
2002,07,23,07,19,19.40
2002,07,23,07,20,19.40
2002,07,23,07,21,19.50
2002,07,23,07,22,19.50
2002,07,23,07,23,19.60
2002,07,23,07,24,19.60
2002,07,23,07,25,19.50
2002,07,23,07,26,19.50
2002,07,23,07,27,19.60
2002,07,23,07,28,19.60
2002,07,23,07,29,19.60
2002,07,23,07,30,19.60
2002,07,23,07,31,19.70
2002,07,23,07,32,19.70
2002,07,23,07,33,19.80
2002,07,23,07,34,19.90
2002,07,23,07,35,19.90
2002,07,23,07,36,19.90
2002,07,23,07,37,19.90
2002,07,23,07,38,20.00
2002,07,23,07,39,20.10
2002,07,23,07,40,20.20
2002,07,23,07,41,20.30
2002,07,23,07,42,20.40
2002,07,23,07,43,20.40
2002,07,23,07,44,20.40
2002,07,23,07,45,20.30
2002,07,23,07,46,20.30
2002,07,23,07,47,20.20
2002,07,23,07,48,20.30
2002,07,23,07,49,20.40
2002,07,23,07,50,20.50
2002,07,23,07,51,20.50
2002,07,23,07,52,20.60
2002,07,23,07,53,20.70
2002,07,23,07,54,20.80
2002,07,23,07,55,20.80
2002,07,23,07,56,20.90
2002,07,23,07,57,20.90
2002,07,23,07,58,21.00
2002,07,23,07,59,21.00
2002,07,23,08,00,21.10
2002,07,23,08,01,21.20
2002,07,23,08,02,21.30
2002,07,23,08,03,21.40
2002,07,23,08,04,21.40
2002,07,23,08,05,21.50
2002,07,23,08,06,21.60
2002,07,23,08,07,21.60
2002,07,23,08,08,21.60
2002,07,23,08,09,21.80
2002,07,23,08,10,21.90
2002,07,23,08,11,22.00
2002,07,23,08,12,22.20
2002,07,23,08,13,22.40
2002,07,23,08,14,22.40
2002,07,23,08,15,22.30
2002,07,23,08,16,22.10
2002,07,23,08,17,22.00
2002,07,23,08,18,22.00
2002,07,23,08,19,22.10
2002,07,23,08,20,22.40
2002,07,23,08,21,22.60
2002,07,23,08,22,22.80
2002,07,23,08,23,22.80
2002,07,23,08,24,22.90
2002,07,23,08,25,23.00
2002,07,23,08,26,23.10
2002,07,23,08,27,23.10
2002,07,23,08,28,23.10
2002,07,23,08,29,23.10
2002,07,23,08,30,23.00
2002,07,23,08,31,23.00
2002,07,23,08,32,23.10
2002,07,23,08,33,23.10
2002,07,23,08,34,23.20
2002,07,23,08,35,23.20
2002,07,23,08,36,23.30
2002,07,23,08,37,23.30
2002,07,23,08,38,23.30
2002,07,23,08,39,23.30
2002,07,23,08,40,23.40
2002,07,23,08,41,23.40
2002,07,23,08,42,23.30
2002,07,23,08,43,23.30
2002,07,23,08,44,23.20
2002,07,23,08,45,23.20
2002,07,23,08,46,23.10
2002,07,23,08,47,23.10
2002,07,23,08,48,23.10
2002,07,23,08,49,23.00
2002,07,23,08,50,23.00
2002,07,23,08,51,23.10
2002,07,23,08,52,23.00
2002,07,23,08,53,23.00
2002,07,23,08,54,23.00
2002,07,23,08,55,22.90
2002,07,23,08,56,22.90
2002,07,23,08,57,22.80
2002,07,23,08,58,22.90
2002,07,23,08,59,22.80
2002,07,23,09,00,22.80
2002,07,23,09,01,22.70
2002,07,23,09,02,22.70
2002,07,23,09,03,22.70
2002,07,23,09,04,22.70
2002,07,23,09,05,22.80
2002,07,23,09,06,22.90
2002,07,23,09,07,22.90
2002,07,23,09,08,22.80
2002,07,23,09,09,22.80
2002,07,23,09,10,22.80
2002,07,23,09,11,22.80
2002,07,23,09,12,22.80
2002,07,23,09,13,22.90
2002,07,23,09,14,22.90
2002,07,23,09,15,22.80
2002,07,23,09,16,22.70
2002,07,23,09,17,22.80
2002,07,23,09,18,23.00
2002,07,23,09,19,23.00
2002,07,23,09,20,23.00
2002,07,23,09,21,23.20
2002,07,23,09,22,23.10
2002,07,23,09,23,23.10
2002,07,23,09,24,23.20
2002,07,23,09,25,23.20
2002,07,23,09,26,23.20
2002,07,23,09,27,23.20
2002,07,23,09,28,23.10
2002,07,23,09,29,23.00
2002,07,23,09,30,23.00
2002,07,23,09,31,23.10
2002,07,23,09,32,23.20
2002,07,23,09,33,23.30
2002,07,23,09,34,23.30
2002,07,23,09,35,23.40
2002,07,23,09,36,23.40
2002,07,23,09,37,23.30
2002,07,23,09,38,23.40
2002,07,23,09,39,23.30
2002,07,23,09,40,23.20
2002,07,23,09,41,23.30
2002,07,23,09,42,23.30
2002,07,23,09,43,23.20
2002,07,23,09,44,23.10
2002,07,23,09,45,23.10
2002,07,23,09,46,23.20
2002,07,23,09,47,23.20
2002,07,23,09,48,23.20
2002,07,23,09,49,23.10
2002,07,23,09,50,23.10
2002,07,23,09,51,23.20
2002,07,23,09,52,23.20
2002,07,23,09,53,23.30
2002,07,23,09,54,23.30
2002,07,23,09,55,23.30
2002,07,23,09,56,23.40
2002,07,23,09,57,23.40
2002,07,23,09,58,23.30
2002,07,23,09,59,23.20
2002,07,23,10,00,23.30
2002,07,23,10,01,23.10
2002,07,23,10,02,23.00
2002,07,23,10,03,22.90
2002,07,23,10,04,22.90
2002,07,23,10,05,22.90
2002,07,23,10,06,22.90
2002,07,23,10,07,23.00
2002,07,23,10,08,23.10
2002,07,23,10,09,23.10
2002,07,23,10,10,23.20
2002,07,23,10,11,23.20
2002,07,23,10,12,23.30
2002,07,23,10,13,23.50
2002,07,23,10,14,23.70
2002,07,23,10,15,23.70
2002,07,23,10,16,23.70
2002,07,23,10,17,23.70
2002,07,23,10,18,23.80
2002,07,23,10,19,23.90
2002,07,23,10,20,24.10
2002,07,23,10,21,24.10
2002,07,23,10,22,24.10
2002,07,23,10,23,24.10
2002,07,23,10,24,24.00
2002,07,23,10,25,23.90
2002,07,23,10,26,23.80
2002,07,23,10,27,23.70
2002,07,23,10,28,23.80
2002,07,23,10,29,23.70
2002,07,23,10,30,23.80
2002,07,23,10,31,23.80
2002,07,23,10,32,23.80
2002,07,23,10,33,23.90
2002,07,23,10,34,24.00
2002,07,23,10,35,24.20
2002,07,23,10,36,24.40
2002,07,23,10,37,24.50
2002,07,23,10,38,24.60
2002,07,23,10,39,24.70
2002,07,23,10,40,24.90
2002,07,23,10,41,24.80
2002,07,23,10,42,24.80
2002,07,23,10,43,24.80
2002,07,23,10,44,24.70
2002,07,23,10,45,24.70
2002,07,23,10,46,24.50
2002,07,23,10,47,24.40
2002,07,23,10,48,24.50
2002,07,23,10,49,24.50
2002,07,23,10,50,24.70
2002,07,23,10,51,24.90
2002,07,23,10,52,24.90
2002,07,23,10,53,24.90
2002,07,23,10,54,25.00
2002,07,23,10,55,25.00
2002,07,23,10,56,25.10
2002,07,23,10,57,25.10
2002,07,23,10,58,25.00
2002,07,23,10,59,25.10
2002,07,23,11,00,24.90
2002,07,23,11,01,25.00
2002,07,23,11,02,25.10
2002,07,23,11,03,25.10
2002,07,23,11,04,25.20
2002,07,23,11,05,25.20
2002,07,23,11,06,25.10
2002,07,23,11,07,25.20
2002,07,23,11,08,25.30
2002,07,23,11,09,25.30
2002,07,23,11,10,25.50
2002,07,23,11,11,25.50
2002,07,23,11,12,25.40
2002,07,23,11,13,25.20
2002,07,23,11,14,25.20
2002,07,23,11,15,25.30
2002,07,23,11,16,25.30
2002,07,23,11,17,25.30
2002,07,23,11,18,25.30
2002,07,23,11,19,25.40
2002,07,23,11,20,25.40
2002,07,23,11,21,25.30
2002,07,23,11,22,25.40
2002,07,23,11,23,25.10
2002,07,23,11,24,24.90
2002,07,23,11,25,24.60
2002,07,23,11,26,24.60
2002,07,23,11,27,24.60
2002,07,23,11,28,24.60
2002,07,23,11,29,24.80
2002,07,23,11,30,24.60
2002,07,23,11,31,24.30
2002,07,23,11,32,24.20
2002,07,23,11,33,24.30
2002,07,23,11,34,24.40
2002,07,23,11,35,24.30
2002,07,23,11,36,24.40
2002,07,23,11,37,24.50
2002,07,23,11,38,24.70
2002,07,23,11,39,24.60
2002,07,23,11,40,24.60
2002,07,23,11,41,24.40
2002,07,23,11,42,24.30
2002,07,23,11,43,24.30
2002,07,23,11,44,24.10
2002,07,23,11,45,24.10
2002,07,23,11,46,24.20
2002,07,23,11,47,24.30
2002,07,23,11,48,24.40
2002,07,23,11,49,24.50
2002,07,23,11,50,24.60
2002,07,23,11,51,24.50
2002,07,23,11,52,24.60
2002,07,23,11,53,24.50
2002,07,23,11,54,24.70
2002,07,23,11,55,24.60
2002,07,23,11,56,24.50
2002,07,23,11,57,24.60
2002,07,23,11,58,24.50
2002,07,23,11,59,24.50
2002,07,23,12,00,24.60
2002,07,23,12,01,24.70
2002,07,23,12,02,24.50
2002,07,23,12,03,24.40
2002,07,23,12,04,24.30
2002,07,23,12,05,24.20
2002,07,23,12,06,24.40
2002,07,23,12,07,24.50
2002,07,23,12,08,24.60
2002,07,23,12,09,24.60
2002,07,23,12,10,24.70
2002,07,23,12,11,24.90
2002,07,23,12,12,24.90
2002,07,23,12,13,25.10
2002,07,23,12,14,25.20
2002,07,23,12,15,25.30
2002,07,23,12,16,25.50
2002,07,23,12,17,25.60
2002,07,23,12,18,25.50
2002,07,23,12,19,25.30
2002,07,23,12,20,25.30
2002,07,23,12,21,25.30
2002,07,23,12,22,25.20
2002,07,23,12,23,25.10
2002,07,23,12,24,25.10
2002,07,23,12,25,25.10
2002,07,23,12,26,25.00
2002,07,23,12,27,24.90
2002,07,23,12,28,24.80
2002,07,23,12,29,24.90
2002,07,23,12,30,25.00
2002,07,23,12,31,24.90
2002,07,23,12,32,24.90
2002,07,23,12,33,25.10
2002,07,23,12,34,25.30
2002,07,23,12,35,25.50
2002,07,23,12,36,25.30
2002,07,23,12,37,25.00
2002,07,23,12,38,24.80
2002,07,23,12,39,24.80
2002,07,23,12,40,24.80
2002,07,23,12,41,24.80
2002,07,23,12,42,24.80
2002,07,23,12,43,24.80
2002,07,23,12,44,24.80
2002,07,23,12,45,24.70
2002,07,23,12,46,24.60
2002,07,23,12,47,24.60
2002,07,23,12,48,24.60
2002,07,23,12,49,24.70
2002,07,23,12,50,24.60
2002,07,23,12,51,24.70
2002,07,23,12,52,24.80
2002,07,23,12,53,24.90
2002,07,23,12,54,24.90
2002,07,23,12,55,24.90
2002,07,23,12,56,24.90
2002,07,23,12,57,25.00
2002,07,23,12,58,24.90
2002,07,23,12,59,24.90
2002,07,23,13,00,24.90
2002,07,23,13,01,25.10
2002,07,23,13,02,25.30
2002,07,23,13,03,25.40
2002,07,23,13,04,25.60
2002,07,23,13,05,25.80
2002,07,23,13,06,25.70
2002,07,23,13,07,25.70
2002,07,23,13,08,25.70
2002,07,23,13,09,25.70
2002,07,23,13,10,25.80
2002,07,23,13,11,26.00
2002,07,23,13,12,26.40
2002,07,23,13,13,26.50
2002,07,23,13,14,26.60
2002,07,23,13,15,26.80
2002,07,23,13,16,26.80
2002,07,23,13,17,26.70
2002,07,23,13,18,26.40
2002,07,23,13,19,26.10
2002,07,23,13,20,26.00
2002,07,23,13,21,25.80
2002,07,23,13,22,25.70
2002,07,23,13,23,25.70
2002,07,23,13,24,25.60
2002,07,23,13,25,25.70
2002,07,23,13,26,25.70
2002,07,23,13,27,25.90
2002,07,23,13,28,26.00
2002,07,23,13,29,26.00
2002,07,23,13,30,26.10
2002,07,23,13,31,26.30
2002,07,23,13,32,26.50
2002,07,23,13,33,26.70
2002,07,23,13,34,26.80
2002,07,23,13,35,26.60
2002,07,23,13,36,26.50
2002,07,23,13,37,26.30
2002,07,23,13,38,26.20
2002,07,23,13,39,26.10
2002,07,23,13,40,26.10
2002,07,23,13,41,26.00
2002,07,23,13,42,26.00
2002,07,23,13,43,26.10
2002,07,23,13,44,26.20
2002,07,23,13,45,26.30
2002,07,23,13,46,26.00
2002,07,23,13,47,26.10
2002,07,23,13,48,26.20
2002,07,23,13,49,26.40
2002,07,23,13,50,26.50
2002,07,23,13,51,26.60
2002,07,23,13,52,26.70
2002,07,23,13,53,26.60
2002,07,23,13,54,26.70
2002,07,23,13,55,26.80
2002,07,23,13,56,26.90
2002,07,23,13,57,26.70
2002,07,23,13,58,26.70
2002,07,23,13,59,26.80
2002,07,23,14,00,26.90
2002,07,23,14,01,27.20
2002,07,23,14,02,27.30
2002,07,23,14,03,27.30
2002,07,23,14,04,27.40
2002,07,23,14,05,27.40
2002,07,23,14,06,27.20
2002,07,23,14,07,27.00
2002,07,23,14,08,26.70
2002,07,23,14,09,26.60
2002,07,23,14,10,26.50
2002,07,23,14,11,26.50
2002,07,23,14,12,26.50
2002,07,23,14,13,26.50
2002,07,23,14,14,26.70
2002,07,23,14,15,26.90
2002,07,23,14,16,26.80
2002,07,23,14,17,26.80
2002,07,23,14,18,26.70
2002,07,23,14,19,26.70
2002,07,23,14,20,26.80
2002,07,23,14,21,26.80
2002,07,23,14,22,26.60
2002,07,23,14,23,26.70
2002,07,23,14,24,26.80
2002,07,23,14,25,26.90
2002,07,23,14,26,27.10
2002,07,23,14,27,27.00
2002,07,23,14,28,27.00
2002,07,23,14,29,27.20
2002,07,23,14,30,27.10
2002,07,23,14,31,27.30
2002,07,23,14,32,27.50
2002,07,23,14,33,27.50
2002,07,23,14,34,27.40
2002,07,23,14,35,27.50
2002,07,23,14,36,27.70
2002,07,23,14,37,28.00
2002,07,23,14,38,28.20
2002,07,23,14,39,28.40
2002,07,23,14,40,28.60
2002,07,23,14,41,28.40
2002,07,23,14,42,28.50
2002,07,23,14,43,28.70
2002,07,23,14,44,28.80
2002,07,23,14,45,28.90
2002,07,23,14,46,28.90
2002,07,23,14,47,28.60
2002,07,23,14,48,28.50
2002,07,23,14,49,28.40
2002,07,23,14,50,28.30
2002,07,23,14,51,28.10
2002,07,23,14,52,27.80
2002,07,23,14,53,27.60
2002,07,23,14,54,27.40
2002,07,23,14,55,27.10
2002,07,23,14,56,27.10
2002,07,23,14,57,27.00
2002,07,23,14,58,27.20
2002,07,23,14,59,27.30
2002,07,23,15,00,27.40
2002,07,23,15,01,27.50
2002,07,23,15,02,27.70
2002,07,23,15,03,27.80
2002,07,23,15,04,28.10
2002,07,23,15,05,28.40
2002,07,23,15,06,28.60
2002,07,23,15,07,28.90
2002,07,23,15,08,28.90
2002,07,23,15,09,29.00
2002,07,23,15,10,29.00
2002,07,23,15,11,28.90
2002,07,23,15,12,28.80
2002,07,23,15,13,28.60
2002,07,23,15,14,28.50
2002,07,23,15,15,28.50
2002,07,23,15,16,28.70
2002,07,23,15,17,28.90
2002,07,23,15,18,28.90
2002,07,23,15,19,28.90
2002,07,23,15,20,28.90
2002,07,23,15,21,29.00
2002,07,23,15,22,29.00
2002,07,23,15,23,28.90
2002,07,23,15,24,28.80
2002,07,23,15,25,28.70
2002,07,23,15,26,28.50
2002,07,23,15,27,28.50
2002,07,23,15,28,28.70
2002,07,23,15,29,28.60
2002,07,23,15,30,28.70
2002,07,23,15,31,28.90
2002,07,23,15,32,28.90
2002,07,23,15,33,29.00
2002,07,23,15,34,29.00
2002,07,23,15,35,29.10
2002,07,23,15,36,29.00
2002,07,23,15,37,29.00
2002,07,23,15,38,29.00
2002,07,23,15,39,29.00
2002,07,23,15,40,28.90
2002,07,23,15,41,28.80
2002,07,23,15,42,28.90
2002,07,23,15,43,28.90
2002,07,23,15,44,28.90
2002,07,23,15,45,28.80
2002,07,23,15,46,28.80
2002,07,23,15,47,28.90
2002,07,23,15,48,29.00
2002,07,23,15,49,29.10
2002,07,23,15,50,29.00
2002,07,23,15,51,29.00
2002,07,23,15,52,29.00
2002,07,23,15,53,29.00
2002,07,23,15,54,28.90
2002,07,23,15,55,28.80
2002,07,23,15,56,28.70
2002,07,23,15,57,28.70
2002,07,23,15,58,28.60
2002,07,23,15,59,28.70
2002,07,23,16,00,28.90
2002,07,23,16,01,28.90
2002,07,23,16,02,28.90
2002,07,23,16,03,28.90
2002,07,23,16,04,28.90
2002,07,23,16,05,28.70
2002,07,23,16,06,28.60
2002,07,23,16,07,28.60
2002,07,23,16,08,28.60
2002,07,23,16,09,28.70
2002,07,23,16,10,28.70
2002,07,23,16,11,28.70
2002,07,23,16,12,28.90
2002,07,23,16,13,28.90
2002,07,23,16,14,29.00
2002,07,23,16,15,29.10
2002,07,23,16,16,29.20
2002,07,23,16,17,29.30
2002,07,23,16,18,29.20
2002,07,23,16,19,29.30
2002,07,23,16,20,29.20
2002,07,23,16,21,29.00
2002,07,23,16,22,28.90
2002,07,23,16,23,28.90
2002,07,23,16,24,29.00
2002,07,23,16,25,29.10
2002,07,23,16,26,29.10
2002,07,23,16,27,29.30
2002,07,23,16,28,29.30
2002,07,23,16,29,29.30
2002,07,23,16,30,29.30
2002,07,23,16,31,28.90
2002,07,23,16,32,28.90
2002,07,23,16,33,28.70
2002,07,23,16,34,28.70
2002,07,23,16,35,28.80
2002,07,23,16,36,28.70
2002,07,23,16,37,28.70
2002,07,23,16,38,28.70
2002,07,23,16,39,28.80
2002,07,23,16,40,28.90
2002,07,23,16,41,28.90
2002,07,23,16,42,28.90
2002,07,23,16,43,28.80
2002,07,23,16,44,28.70
2002,07,23,16,45,28.80
2002,07,23,16,46,28.90
2002,07,23,16,47,28.70
2002,07,23,16,48,28.70
2002,07,23,16,49,28.80
2002,07,23,16,50,28.90
2002,07,23,16,51,28.90
2002,07,23,16,52,29.00
2002,07,23,16,53,29.30
2002,07,23,16,54,29.30
2002,07,23,16,55,29.20
2002,07,23,16,56,29.10
2002,07,23,16,57,29.10
2002,07,23,16,58,29.10
2002,07,23,16,59,29.10
2002,07,23,17,00,29.10
2002,07,23,17,01,29.10
2002,07,23,17,02,29.00
2002,07,23,17,03,29.00
2002,07,23,17,04,29.00
2002,07,23,17,05,29.10
2002,07,23,17,06,29.20
2002,07,23,17,07,29.30
2002,07,23,17,08,29.40
2002,07,23,17,09,29.60
2002,07,23,17,10,29.70
2002,07,23,17,11,29.70
2002,07,23,17,12,29.80
2002,07,23,17,13,29.80
2002,07,23,17,14,30.00
2002,07,23,17,15,30.00
2002,07,23,17,16,30.10
2002,07,23,17,17,30.20
2002,07,23,17,18,30.10
2002,07,23,17,19,30.00